,,,PA_Meas_PMT16A,,PR_Meas_QMR101_102,,RH_Meas_QMH101,,SR_Meas_QMS101,,TA_Meas_QMH101,,GenWind,,GenWind,
date,time,status,PA,status,PR,status,RH,status,SR,status,TA,status,DirAvg,status,SpdAvg,
2011-10-09, 00:00:04,VALID,1005.57,VALID,0,VALID,95.3305,VALID,0,VALID,23.7407,VALID,12,VALID,0.560938,
2011-10-09, 00:01:04,VALID,1005.58,VALID,0,VALID,95.3457,VALID,0,VALID,23.7407,VALID,13,VALID,0.530859,
2011-10-09, 00:02:04,VALID,1005.58,VALID,0,VALID,95.3763,VALID,0,VALID,23.7407,VALID,13,VALID,0.357031,
2011-10-09, 00:03:04,VALID,1005.52,VALID,0,VALID,95.361,VALID,0,VALID,23.7601,VALID,13,VALID,0.391406,
2011-10-09, 00:04:04,VALID,1005.53,VALID,0,VALID,95.3229,VALID,0.0815089,VALID,23.7389,VALID,13,VALID,0.40625,
2011-10-09, 00:05:04,VALID,1005.52,VALID,0,VALID,95.3763,VALID,0.0815089,VALID,23.7583,VALID,13,VALID,0.219922,
2011-10-09, 00:06:04,VALID,1005.49,VALID,0,VALID,95.3991,VALID,0,VALID,23.7796,VALID,13,VALID,0.165234,
2011-10-09, 00:07:04,VALID,1005.48,VALID,0,VALID,95.3686,VALID,0.0815089,VALID,23.7601,VALID,13,VALID,0.207813,
2011-10-09, 00:08:04,VALID,1005.46,VALID,0,VALID,95.3534,VALID,0.0815089,VALID,23.7389,VALID,13,VALID,0.191406,
2011-10-09, 00:09:04,VALID,1005.44,VALID,0,VALID,95.3686,VALID,0.0815089,VALID,23.7407,VALID,13,VALID,0,
2011-10-09, 00:10:04,VALID,1005.43,VALID,0,VALID,95.361,VALID,0,VALID,23.7,VALID,13,VALID,0,
2011-10-09, 00:11:04,VALID,1005.41,VALID,0,VALID,95.3457,VALID,0,VALID,23.7017,VALID,47,VALID,0.501562,
2011-10-09, 00:12:04,VALID,1005.38,VALID,0,VALID,95.3686,VALID,0.0815089,VALID,23.7017,VALID,59,VALID,0.129688,
2011-10-09, 00:13:04,VALID,1005.39,VALID,0,VALID,95.3915,VALID,0.0815089,VALID,23.6805,VALID,59,VALID,0.383203,
2011-10-09, 00:14:04,VALID,1005.33,VALID,0,VALID,95.3686,VALID,0,VALID,23.7212,VALID,59,VALID,0.415234,
2011-10-09, 00:15:04,VALID,1005.32,VALID,0,VALID,95.4068,VALID,0.0815089,VALID,23.7017,VALID,59,VALID,0.171094,
2011-10-09, 00:16:04,VALID,1005.26,VALID,0,VALID,95.4297,VALID,0.0815089,VALID,23.6592,VALID,60,VALID,0.256641,
2011-10-09, 00:17:04,VALID,1005.28,VALID,0,VALID,95.3839,VALID,0.0815089,VALID,23.7,VALID,70,VALID,0.683594,
2011-10-09, 00:18:04,VALID,1005.25,VALID,0,VALID,95.3229,VALID,0.0815089,VALID,23.7017,VALID,72,VALID,0.38125,
2011-10-09, 00:19:04,VALID,1005.24,VALID,0,VALID,95.2389,VALID,0.0815089,VALID,23.7407,VALID,71,VALID,0.603906,
2011-10-09, 00:20:04,VALID,1005.23,VALID,0,VALID,95.1093,VALID,0.0815089,VALID,23.7796,VALID,68,VALID,0.448828,
2011-10-09, 00:21:04,VALID,1005.21,VALID,0,VALID,94.9948,VALID,0,VALID,23.7973,VALID,61,VALID,0.402734,
2011-10-09, 00:22:04,VALID,1005.18,VALID,0,VALID,94.9796,VALID,0,VALID,23.838,VALID,79,VALID,0.241797,
2011-10-09, 00:23:04,VALID,1005.2,VALID,0,VALID,94.9185,VALID,0.0815089,VALID,23.8167,VALID,71,VALID,0.328906,
2011-10-09, 00:24:04,VALID,1005.17,VALID,0,VALID,94.9109,VALID,0.0815089,VALID,23.838,VALID,71,VALID,0.278906,
2011-10-09, 00:25:04,VALID,1005.16,VALID,0,VALID,94.949,VALID,0.0815089,VALID,23.8185,VALID,71,VALID,0.120312,
2011-10-09, 00:26:04,VALID,1005.13,VALID,0,VALID,95.0101,VALID,0,VALID,23.7991,VALID,70,VALID,0.298828,
2011-10-09, 00:27:04,VALID,1005.14,VALID,0,VALID,95.0482,VALID,0.0815089,VALID,23.7991,VALID,49,VALID,0.316406,
2011-10-09, 00:28:04,VALID,1005.15,VALID,0,VALID,95.0864,VALID,0.0815089,VALID,23.7778,VALID,49,VALID,0,
2011-10-09, 00:29:04,VALID,1005.12,VALID,0,VALID,95.0864,VALID,0,VALID,23.7583,VALID,49,VALID,0.190625,
2011-10-09, 00:30:04,VALID,1005.15,VALID,0,VALID,95.0864,VALID,0.0815089,VALID,23.7778,VALID,49,VALID,0.182812,
2011-10-09, 00:31:04,VALID,1005.11,VALID,0,VALID,95.0635,VALID,0.0815089,VALID,23.7778,VALID,49,VALID,0.0746094,
2011-10-09, 00:32:04,VALID,1005.12,VALID,0,VALID,95.0482,VALID,0,VALID,23.8185,VALID,49,VALID,0.103125,
2011-10-09, 00:33:04,VALID,1005.11,VALID,0,VALID,95.0024,VALID,0,VALID,23.8203,VALID,58,VALID,0.351172,
2011-10-09, 00:34:04,VALID,1005.11,VALID,0,VALID,95.0024,VALID,0,VALID,23.7796,VALID,57,VALID,0.158984,
2011-10-09, 00:35:04,VALID,1005.15,VALID,0,VALID,94.9643,VALID,0,VALID,23.8009,VALID,47,VALID,0.558203,
2011-10-09, 00:36:04,VALID,1005.11,VALID,0,VALID,94.9948,VALID,0,VALID,23.7991,VALID,48,VALID,0.217187,
2011-10-09, 00:37:04,VALID,1005.07,VALID,0,VALID,94.9567,VALID,0,VALID,23.8203,VALID,54,VALID,0.281641,
2011-10-09, 00:38:04,VALID,1005.05,VALID,0,VALID,94.9262,VALID,0,VALID,23.8203,VALID,54,VALID,0.310937,
2011-10-09, 00:39:04,VALID,1005.05,VALID,0,VALID,94.9643,VALID,0,VALID,23.8185,VALID,54,VALID,0.389062,
2011-10-09, 00:40:04,VALID,1005.04,VALID,0,VALID,94.8804,VALID,0,VALID,23.838,VALID,54,VALID,0.409375,
2011-10-09, 00:41:04,VALID,1005.01,VALID,0,VALID,94.8194,VALID,0,VALID,23.8593,VALID,68,VALID,0.714063,
2011-10-09, 00:42:04,VALID,1004.99,VALID,0,VALID,94.8117,VALID,0,VALID,23.838,VALID,70,VALID,0.179688,
2011-10-09, 00:43:04,VALID,1005,VALID,0,VALID,94.7888,VALID,0,VALID,23.8593,VALID,70,VALID,0.078125,
2011-10-09, 00:44:04,VALID,1004.97,VALID,0,VALID,94.7431,VALID,0,VALID,23.8398,VALID,71,VALID,0.543359,
2011-10-09, 00:45:04,VALID,1004.96,VALID,0,VALID,94.7278,VALID,0,VALID,23.838,VALID,72,VALID,0.313672,
2011-10-09, 00:46:04,VALID,1004.91,VALID,0,VALID,94.7278,VALID,0,VALID,23.838,VALID,72,VALID,0.261328,
2011-10-09, 00:47:04,VALID,1004.94,VALID,0,VALID,94.7202,VALID,0,VALID,23.8593,VALID,43,VALID,0.323828,
2011-10-09, 00:48:04,VALID,1004.92,VALID,0,VALID,94.7125,VALID,0,VALID,23.8593,VALID,65,VALID,0.533984,
2011-10-09, 00:49:04,VALID,1004.9,VALID,0,VALID,94.6744,VALID,0,VALID,23.8593,VALID,75,VALID,0.348047,
2011-10-09, 00:50:04,VALID,1004.9,VALID,0,VALID,94.621,VALID,0,VALID,23.8593,VALID,61,VALID,1.06484,
2011-10-09, 00:51:04,VALID,1004.9,VALID,0,VALID,94.5676,VALID,0,VALID,23.8787,VALID,42,VALID,0.604297,
2011-10-09, 00:52:04,VALID,1004.85,VALID,0,VALID,94.5447,VALID,0,VALID,23.8982,VALID,39,VALID,0.352344,
2011-10-09, 00:53:04,VALID,1004.87,VALID,0,VALID,94.5371,VALID,0,VALID,23.8982,VALID,39,VALID,0.214844,
2011-10-09, 00:54:04,VALID,1004.83,VALID,0,VALID,94.5295,VALID,0,VALID,23.8982,VALID,39,VALID,0.245703,
2011-10-09, 00:55:04,VALID,1004.83,VALID,0,VALID,94.4837,VALID,0,VALID,23.8769,VALID,39,VALID,0.499219,
2011-10-09, 00:56:04,VALID,1004.81,VALID,0,VALID,94.5142,VALID,0,VALID,23.8982,VALID,38,VALID,0.324219,
2011-10-09, 00:57:04,VALID,1004.8,VALID,0,VALID,94.4532,VALID,0,VALID,23.8787,VALID,36,VALID,0.576172,
2011-10-09, 00:58:04,VALID,1004.8,VALID,0,VALID,94.4989,VALID,0,VALID,23.8982,VALID,27,VALID,0.63125,
2011-10-09, 00:59:04,VALID,1004.78,VALID,0,VALID,94.5218,VALID,0,VALID,23.8769,VALID,28,VALID,0.328516,
2011-10-09, 01:00:04,VALID,1004.81,VALID,0,VALID,94.56,VALID,0,VALID,23.8575,VALID,28,VALID,0.341797,
2011-10-09, 01:01:04,VALID,1004.78,VALID,0,VALID,94.6057,VALID,0,VALID,23.8787,VALID,28,VALID,0.578125,
2011-10-09, 01:02:04,VALID,1004.78,VALID,0,VALID,94.6897,VALID,0,VALID,23.8593,VALID,28,VALID,0.489062,
2011-10-09, 01:03:04,VALID,1004.77,VALID,0,VALID,94.7812,VALID,0,VALID,23.8575,VALID,354,VALID,0.636328,
2011-10-09, 01:04:04,VALID,1004.77,VALID,0,VALID,94.7125,VALID,0,VALID,23.8362,VALID,6,VALID,0.739453,
2011-10-09, 01:05:04,VALID,1004.79,VALID,0,VALID,94.7049,VALID,0,VALID,23.8167,VALID,10,VALID,0.719531,
2011-10-09, 01:06:04,VALID,1004.78,VALID,0,VALID,94.6057,VALID,0,VALID,23.8593,VALID,7,VALID,1.04062,
2011-10-09, 01:07:04,VALID,1004.78,VALID,0,VALID,94.5295,VALID,0.0815089,VALID,23.8185,VALID,339,VALID,1.0207,
2011-10-09, 01:08:04,VALID,1004.77,VALID,0,VALID,94.4837,VALID,0,VALID,23.838,VALID,14,VALID,1.39531,
2011-10-09, 01:09:04,VALID,1004.78,VALID,0,VALID,94.4379,VALID,0,VALID,23.8575,VALID,355,VALID,1.22578,
2011-10-09, 01:10:04,VALID,1004.79,VALID,0,VALID,94.5676,VALID,0,VALID,23.8575,VALID,360,VALID,0.894141,
2011-10-09, 01:11:04,VALID,1004.82,VALID,0,VALID,94.5829,VALID,0,VALID,23.8575,VALID,357,VALID,1.06016,
2011-10-09, 01:12:04,VALID,1004.78,VALID,0,VALID,94.621,VALID,0.0815089,VALID,23.838,VALID,10,VALID,1.14453,
2011-10-09, 01:13:04,VALID,1004.78,VALID,0,VALID,94.5981,VALID,0.0815089,VALID,23.8769,VALID,354,VALID,1.44648,
2011-10-09, 01:14:04,VALID,1004.79,VALID,0,VALID,94.5981,VALID,0,VALID,23.8751,VALID,11,VALID,0.770312,
2011-10-09, 01:15:04,VALID,1004.81,VALID,0,VALID,94.4379,VALID,0,VALID,23.9159,VALID,16,VALID,0.939453,
2011-10-09, 01:16:04,VALID,1004.8,VALID,0,VALID,94.5218,VALID,0,VALID,23.9159,VALID,359,VALID,1.08359,
2011-10-09, 01:17:04,VALID,1004.8,VALID,0,VALID,94.56,VALID,0,VALID,23.9353,VALID,12,VALID,0.903125,
2011-10-09, 01:18:04,VALID,1004.78,VALID,0,VALID,94.4913,VALID,0.0815089,VALID,23.914,VALID,8,VALID,0.959766,
2011-10-09, 01:19:04,VALID,1004.8,VALID,0,VALID,94.4227,VALID,0,VALID,23.9742,VALID,15,VALID,0.914844,
2011-10-09, 01:20:04,VALID,1004.79,VALID,0,VALID,94.4074,VALID,0.0815089,VALID,23.9724,VALID,28,VALID,0.919922,
2011-10-09, 01:21:04,VALID,1004.8,VALID,0,VALID,94.2243,VALID,0,VALID,24.0521,VALID,22,VALID,1.04844,
2011-10-09, 01:22:04,VALID,1004.77,VALID,0,VALID,94.0565,VALID,0.0815089,VALID,24.0892,VALID,15,VALID,0.888281,
2011-10-09, 01:23:04,VALID,1004.8,VALID,0,VALID,94.0412,VALID,0.0815089,VALID,24.0892,VALID,40,VALID,0.579297,
2011-10-09, 01:24:04,VALID,1004.78,VALID,0,VALID,94.0641,VALID,0,VALID,24.091,VALID,28,VALID,0.708594,
2011-10-09, 01:25:04,VALID,1004.74,VALID,0,VALID,94.087,VALID,0,VALID,24.0503,VALID,17,VALID,0.817578,
2011-10-09, 01:26:04,VALID,1004.77,VALID,0,VALID,94.1099,VALID,0,VALID,24.0521,VALID,14,VALID,0.830859,
2011-10-09, 01:27:04,VALID,1004.76,VALID,0,VALID,94.1862,VALID,0.0815089,VALID,24.0308,VALID,15,VALID,0.708984,
2011-10-09, 01:28:04,VALID,1004.78,VALID,0,VALID,94.1785,VALID,0,VALID,24.0716,VALID,17,VALID,0.865234,
2011-10-09, 01:29:04,VALID,1004.75,VALID,0,VALID,94.1328,VALID,0,VALID,24.0716,VALID,27,VALID,0.492969,
2011-10-09, 01:30:04,VALID,1004.76,VALID,0,VALID,94.1709,VALID,0.0815089,VALID,24.091,VALID,17,VALID,0.588281,
2011-10-09, 01:31:04,VALID,1004.76,VALID,0,VALID,94.1556,VALID,0,VALID,24.091,VALID,17,VALID,0.726172,
2011-10-09, 01:32:04,VALID,1004.76,VALID,0,VALID,94.1404,VALID,0,VALID,24.091,VALID,12,VALID,0.65,
2011-10-09, 01:33:04,VALID,1004.76,VALID,0,VALID,94.2319,VALID,0,VALID,24.091,VALID,19,VALID,0.628125,
2011-10-09, 01:34:04,VALID,1004.75,VALID,0,VALID,94.2396,VALID,0,VALID,24.0716,VALID,20,VALID,0.504687,
2011-10-09, 01:35:04,VALID,1004.76,VALID,0,VALID,94.2548,VALID,0,VALID,24.0734,VALID,18,VALID,0.88125,
2011-10-09, 01:36:04,VALID,1004.77,VALID,0,VALID,94.3845,VALID,0,VALID,24.0114,VALID,27,VALID,0.252734,
2011-10-09, 01:37:04,VALID,1004.75,VALID,0,VALID,94.4227,VALID,0,VALID,24.0326,VALID,22,VALID,0.899219,
2011-10-09, 01:38:04,VALID,1004.76,VALID,0,VALID,94.4379,VALID,0,VALID,24.0326,VALID,18,VALID,0.295312,
2011-10-09, 01:39:04,VALID,1004.74,VALID,0,VALID,94.4074,VALID,0,VALID,24.0326,VALID,17,VALID,0.612109,
2011-10-09, 01:40:04,VALID,1004.74,VALID,0,VALID,94.4455,VALID,0,VALID,24.0114,VALID,45,VALID,0.735156,
2011-10-09, 01:41:04,VALID,1004.76,VALID,0,VALID,94.3692,VALID,0,VALID,24.0521,VALID,28,VALID,0.507813,
2011-10-09, 01:42:04,VALID,1004.76,VALID,0,VALID,94.3387,VALID,0,VALID,24.0521,VALID,28,VALID,0.708984,
2011-10-09, 01:43:04,VALID,1004.73,VALID,0,VALID,94.2853,VALID,0,VALID,24.0521,VALID,22,VALID,0.694141,
2011-10-09, 01:44:04,VALID,1004.71,VALID,0,VALID,94.2624,VALID,0,VALID,24.0521,VALID,350,VALID,0.705078,
2011-10-09, 01:45:04,VALID,1004.74,VALID,0,VALID,94.2167,VALID,0,VALID,24.0716,VALID,360,VALID,1.25195,
2011-10-09, 01:46:04,VALID,1004.72,VALID,0,VALID,94.1709,VALID,0,VALID,24.1318,VALID,20,VALID,1.02266,
2011-10-09, 01:47:04,VALID,1004.71,VALID,0,VALID,94.087,VALID,0,VALID,24.1281,VALID,23,VALID,0.867969,
2011-10-09, 01:48:04,VALID,1004.69,VALID,0,VALID,94.0565,VALID,0,VALID,24.1494,VALID,15,VALID,0.872656,
2011-10-09, 01:49:04,VALID,1004.68,VALID,0,VALID,94.0183,VALID,0,VALID,24.1689,VALID,14,VALID,0.638672,
2011-10-09, 01:50:04,VALID,1004.68,VALID,0,VALID,93.9344,VALID,0,VALID,24.1689,VALID,14,VALID,0.651172,
2011-10-09, 01:51:04,VALID,1004.68,VALID,0,VALID,94.0031,VALID,0,VALID,24.1884,VALID,12,VALID,0.198828,
2011-10-09, 01:52:04,VALID,1004.68,VALID,0,VALID,93.9802,VALID,0,VALID,24.1689,VALID,17,VALID,0.807813,
2011-10-09, 01:53:04,VALID,1004.67,VALID,0,VALID,94.0259,VALID,0,VALID,24.1494,VALID,18,VALID,0.634375,
2011-10-09, 01:54:04,VALID,1004.63,VALID,0,VALID,94.0946,VALID,0,VALID,24.1513,VALID,18,VALID,0.449219,
2011-10-09, 01:55:04,VALID,1004.66,VALID,0,VALID,94.1862,VALID,0,VALID,24.1105,VALID,3,VALID,0.789844,
2011-10-09, 01:56:04,VALID,1004.63,VALID,0,VALID,94.2624,VALID,0,VALID,24.0716,VALID,5,VALID,0.347656,
2011-10-09, 01:57:04,VALID,1004.61,VALID,0,VALID,94.2777,VALID,0,VALID,24.0503,VALID,10,VALID,0.560156,
2011-10-09, 01:58:04,VALID,1004.63,VALID,0,VALID,94.3235,VALID,0,VALID,24.0521,VALID,84,VALID,0.508984,
2011-10-09, 01:59:04,VALID,1004.6,VALID,0,VALID,94.2472,VALID,0,VALID,24.0503,VALID,33,VALID,0.720703,
2011-10-09, 02:00:04,VALID,1004.63,VALID,0,VALID,94.2701,VALID,0.0815089,VALID,24.0716,VALID,21,VALID,0.928125,
2011-10-09, 02:01:04,VALID,1004.63,VALID,0,VALID,94.293,VALID,0,VALID,24.091,VALID,49,VALID,0.138672,
2011-10-09, 02:02:04,VALID,1004.59,VALID,0,VALID,94.2167,VALID,0,VALID,24.1105,VALID,38,VALID,0.371484,
2011-10-09, 02:03:04,VALID,1004.57,VALID,0,VALID,94.1862,VALID,0,VALID,24.1142,VALID,38,VALID,0.560547,
2011-10-09, 02:04:04,VALID,1004.55,VALID,0,VALID,94.1099,VALID,0,VALID,24.1123,VALID,11,VALID,0.963281,
2011-10-09, 02:05:04,VALID,1004.57,VALID,0,VALID,94.087,VALID,0,VALID,24.1318,VALID,12,VALID,1.38633,
2011-10-09, 02:06:04,VALID,1004.55,VALID,0,VALID,94.0336,VALID,0,VALID,24.1513,VALID,20,VALID,0.897656,
2011-10-09, 02:07:04,VALID,1004.53,VALID,0,VALID,94.0717,VALID,0,VALID,24.13,VALID,28,VALID,0.726563,
2011-10-09, 02:08:04,VALID,1004.54,VALID,0,VALID,93.942,VALID,0,VALID,24.1902,VALID,10,VALID,1.17109,
2011-10-09, 02:09:04,VALID,1004.55,VALID,0,VALID,93.881,VALID,0,VALID,24.2097,VALID,20,VALID,0.714453,
2011-10-09, 02:10:04,VALID,1004.55,VALID,0,VALID,93.8352,VALID,0,VALID,24.2291,VALID,26,VALID,0.689844,
2011-10-09, 02:11:04,VALID,1004.57,VALID,0,VALID,93.7742,VALID,0,VALID,24.1902,VALID,19,VALID,1.01133,
2011-10-09, 02:12:04,VALID,1004.53,VALID,0,VALID,93.7437,VALID,0,VALID,24.2115,VALID,17,VALID,0.946094,
2011-10-09, 02:13:04,VALID,1004.51,VALID,0,VALID,93.8429,VALID,0,VALID,24.1689,VALID,19,VALID,0.380078,
2011-10-09, 02:14:04,VALID,1004.52,VALID,0,VALID,93.8429,VALID,0,VALID,24.1707,VALID,16,VALID,0.463281,
2011-10-09, 02:15:04,VALID,1004.5,VALID,0,VALID,93.5911,VALID,0,VALID,24.1707,VALID,8,VALID,1.35508,
2011-10-09, 02:16:04,VALID,1004.49,VALID,0,VALID,93.6521,VALID,0,VALID,24.231,VALID,7,VALID,0.633203,
2011-10-09, 02:17:04,VALID,1004.45,VALID,0,VALID,93.5987,VALID,0,VALID,24.2291,VALID,6,VALID,0.600391,
2011-10-09, 02:18:04,VALID,1004.48,VALID,0,VALID,93.5148,VALID,0,VALID,24.2255,VALID,11,VALID,0.742188,
2011-10-09, 02:19:04,VALID,1004.48,VALID,0,VALID,93.5758,VALID,0,VALID,24.2486,VALID,307,VALID,0.360547,
2011-10-09, 02:20:04,VALID,1004.47,VALID,0,VALID,93.4462,VALID,0,VALID,24.2273,VALID,313,VALID,0.593359,
2011-10-09, 02:21:04,VALID,1004.46,VALID,0,VALID,93.5224,VALID,0,VALID,24.2255,VALID,32,VALID,0.51875,
2011-10-09, 02:22:04,VALID,1004.46,VALID,0,VALID,93.4614,VALID,0.0815089,VALID,24.2662,VALID,28,VALID,0.147656,
2011-10-09, 02:23:04,VALID,1004.47,VALID,0,VALID,93.4538,VALID,0,VALID,24.2468,VALID,31,VALID,0.189453,
2011-10-09, 02:24:04,VALID,1004.43,VALID,0,VALID,93.4538,VALID,0,VALID,24.2468,VALID,346,VALID,0.575391,
2011-10-09, 02:25:04,VALID,1004.46,VALID,0,VALID,93.6369,VALID,0,VALID,24.2468,VALID,344,VALID,0.466406,
2011-10-09, 02:26:04,VALID,1004.44,VALID,0,VALID,93.6521,VALID,0,VALID,24.2273,VALID,353,VALID,0.0121094,
2011-10-09, 02:27:04,VALID,1004.43,VALID,0,VALID,93.6826,VALID,0.0815089,VALID,24.2273,VALID,353,VALID,0.0265625,
2011-10-09, 02:28:04,VALID,1004.43,VALID,0,VALID,93.7513,VALID,0.0815089,VALID,24.2078,VALID,353,VALID,0,
2011-10-09, 02:29:04,VALID,1004.44,VALID,0,VALID,93.7742,VALID,0,VALID,24.1884,VALID,353,VALID,0,
2011-10-09, 02:30:04,VALID,1004.42,VALID,0,VALID,93.7437,VALID,0,VALID,24.1689,VALID,353,VALID,0.0292969,
2011-10-09, 02:31:04,VALID,1004.47,VALID,0,VALID,93.7208,VALID,0,VALID,24.1105,VALID,290,VALID,0.291406,
2011-10-09, 02:32:04,VALID,1004.46,VALID,0,VALID,93.8657,VALID,0,VALID,24.0716,VALID,290,VALID,0,
2011-10-09, 02:33:04,VALID,1004.45,VALID,0,VALID,94.1022,VALID,0,VALID,24.0326,VALID,326,VALID,0.458594,
2011-10-09, 02:34:04,VALID,1004.46,VALID,0,VALID,94.2014,VALID,0,VALID,24.0734,VALID,3,VALID,0.439844,
2011-10-09, 02:35:04,VALID,1004.46,VALID,0,VALID,94.0259,VALID,0,VALID,24.091,VALID,3,VALID,0.289844,
2011-10-09, 02:36:04,VALID,1004.47,VALID,0,VALID,93.7895,VALID,0,VALID,24.0326,VALID,3,VALID,0.3125,
2011-10-09, 02:37:04,VALID,1004.48,VALID,0,VALID,93.9191,VALID,0,VALID,24.0132,VALID,3,VALID,0,
2011-10-09, 02:38:04,VALID,1004.48,VALID,0,VALID,94.0946,VALID,0,VALID,23.9742,VALID,3,VALID,0.150781,
2011-10-09, 02:39:04,VALID,1004.51,VALID,0,VALID,94.3311,VALID,0.0815089,VALID,23.9353,VALID,3,VALID,0,
2011-10-09, 02:40:04,VALID,1004.47,VALID,0,VALID,94.3082,VALID,0,VALID,23.8964,VALID,3,VALID,0.34375,
2011-10-09, 02:41:04,VALID,1004.51,VALID,0,VALID,94.0412,VALID,0,VALID,23.838,VALID,11,VALID,0.504297,
2011-10-09, 02:42:04,VALID,1004.49,VALID,0,VALID,94.0946,VALID,0,VALID,23.7212,VALID,15,VALID,0.505078,
2011-10-09, 02:43:04,VALID,1004.48,VALID,0,VALID,94.5066,VALID,0.0815089,VALID,23.6841,VALID,15,VALID,0,
2011-10-09, 02:44:04,VALID,1004.5,VALID,0,VALID,94.7354,VALID,0,VALID,23.6646,VALID,15,VALID,0.346875,
2011-10-09, 02:45:04,VALID,1004.46,VALID,0,VALID,94.7965,VALID,0,VALID,23.585,VALID,15,VALID,0.311719,
2011-10-09, 02:46:04,VALID,1004.48,VALID,0,VALID,95.2008,VALID,0,VALID,23.585,VALID,319,VALID,0.429297,
2011-10-09, 02:47:04,VALID,1004.47,VALID,0,VALID,95.3839,VALID,0,VALID,23.585,VALID,311,VALID,0.0972656,
2011-10-09, 02:48:04,VALID,1004.48,VALID,0,VALID,95.3457,VALID,0,VALID,23.585,VALID,311,VALID,0.0414063,
2011-10-09, 02:49:04,VALID,1004.5,VALID,0,VALID,95.0406,VALID,0,VALID,23.5655,VALID,9,VALID,0.340625,
2011-10-09, 02:50:04,VALID,1004.49,VALID,0,VALID,95.1703,VALID,0,VALID,23.546,VALID,9,VALID,0.119531,
2011-10-09, 02:51:04,VALID,1004.48,VALID,0,VALID,95.4068,VALID,0,VALID,23.546,VALID,323,VALID,0.409375,
2011-10-09, 02:52:04,VALID,1004.47,VALID,0,VALID,95.5212,VALID,0,VALID,23.585,VALID,352,VALID,0.0984375,
2011-10-09, 02:53:04,VALID,1004.48,VALID,0,VALID,95.6509,VALID,0,VALID,23.6239,VALID,351,VALID,0.163281,
2011-10-09, 02:54:04,VALID,1004.49,VALID,0,VALID,95.6051,VALID,0.0815089,VALID,23.6628,VALID,300,VALID,0.798047,
2011-10-09, 02:55:04,VALID,1004.48,VALID,0,VALID,95.5746,VALID,0,VALID,23.7017,VALID,290,VALID,0.446875,
2011-10-09, 02:56:04,VALID,1004.49,VALID,0,VALID,95.506,VALID,0.0815089,VALID,23.7212,VALID,291,VALID,0.528125,
2011-10-09, 02:57:04,VALID,1004.48,VALID,0,VALID,95.4526,VALID,0.0815089,VALID,23.7778,VALID,293,VALID,0.472656,
2011-10-09, 02:58:04,VALID,1004.51,VALID,0,VALID,95.2008,VALID,0,VALID,23.838,VALID,305,VALID,0.430078,
2011-10-09, 02:59:04,VALID,1004.5,VALID,0,VALID,94.9948,VALID,0.0815089,VALID,23.8769,VALID,305,VALID,0,
2011-10-09, 03:00:04,VALID,1004.55,VALID,0,VALID,94.7736,VALID,0,VALID,23.8769,VALID,305,VALID,0,
2011-10-09, 03:01:04,VALID,1004.52,VALID,0,VALID,94.6591,VALID,0,VALID,23.8575,VALID,305,VALID,0.00898437,
2011-10-09, 03:02:04,VALID,1004.49,VALID,0,VALID,94.293,VALID,0,VALID,23.7778,VALID,305,VALID,0.130469,
2011-10-09, 03:03:04,VALID,1004.49,VALID,0,VALID,94.1785,VALID,0,VALID,23.7407,VALID,305,VALID,0.248437,
2011-10-09, 03:04:04,VALID,1004.51,VALID,0,VALID,94.3921,VALID,0.0815089,VALID,23.6823,VALID,305,VALID,0.0683594,
2011-10-09, 03:05:04,VALID,1004.52,VALID,0,VALID,94.7431,VALID,0,VALID,23.6434,VALID,305,VALID,0,
2011-10-09, 03:06:04,VALID,1004.5,VALID,0,VALID,94.8194,VALID,0,VALID,23.6044,VALID,305,VALID,0,
2011-10-09, 03:07:04,VALID,1004.52,VALID,0,VALID,94.8194,VALID,0,VALID,23.5443,VALID,305,VALID,0.19375,
2011-10-09, 03:08:04,VALID,1004.49,VALID,0,VALID,94.8956,VALID,0,VALID,23.5053,VALID,305,VALID,0.158203,
2011-10-09, 03:09:04,VALID,1004.47,VALID,0,VALID,94.9948,VALID,0,VALID,23.4664,VALID,305,VALID,0,
2011-10-09, 03:10:04,VALID,1004.46,VALID,0,VALID,95.0024,VALID,0,VALID,23.4293,VALID,305,VALID,0,
2011-10-09, 03:11:04,VALID,1004.45,VALID,0,VALID,95.0711,VALID,0,VALID,23.3886,VALID,305,VALID,0,
2011-10-09, 03:12:04,VALID,1004.45,VALID,0,VALID,95.1855,VALID,0,VALID,23.3514,VALID,305,VALID,0,
2011-10-09, 03:13:04,VALID,1004.47,VALID,0,VALID,95.2847,VALID,0.0815089,VALID,23.332,VALID,305,VALID,0,
2011-10-09, 03:14:04,VALID,1004.48,VALID,0,VALID,95.3229,VALID,0,VALID,23.2913,VALID,305,VALID,0.025,
2011-10-09, 03:15:04,VALID,1004.49,VALID,0,VALID,95.3839,VALID,0,VALID,23.2736,VALID,305,VALID,0.145313,
2011-10-09, 03:16:04,VALID,1004.5,VALID,0,VALID,95.4449,VALID,0.0815089,VALID,23.2541,VALID,305,VALID,0,
2011-10-09, 03:17:04,VALID,1004.47,VALID,0,VALID,95.506,VALID,0.0815089,VALID,23.2152,VALID,305,VALID,0,
2011-10-09, 03:18:04,VALID,1004.47,VALID,0,VALID,95.6433,VALID,0,VALID,23.217,VALID,305,VALID,0,
2011-10-09, 03:19:04,VALID,1004.5,VALID,0,VALID,95.6433,VALID,0,VALID,23.1975,VALID,305,VALID,0.160547,
2011-10-09, 03:20:04,VALID,1004.48,VALID,0,VALID,95.5365,VALID,0,VALID,23.1391,VALID,356,VALID,0.541406,
2011-10-09, 03:21:04,VALID,1004.49,VALID,0,VALID,95.5746,VALID,0,VALID,23.079,VALID,357,VALID,0.249219,
2011-10-09, 03:22:04,VALID,1004.46,VALID,0,VALID,95.689,VALID,0,VALID,23.0807,VALID,357,VALID,0.115625,
2011-10-09, 03:23:04,VALID,1004.49,VALID,0,VALID,95.7882,VALID,0,VALID,23.0401,VALID,357,VALID,0,
2011-10-09, 03:24:04,VALID,1004.48,VALID,0,VALID,95.7806,VALID,0,VALID,23.0224,VALID,357,VALID,0.439844,
2011-10-09, 03:25:04,VALID,1004.48,VALID,0,VALID,95.8264,VALID,0,VALID,23.0029,VALID,357,VALID,0.364844,
2011-10-09, 03:26:04,VALID,1004.45,VALID,0,VALID,95.8569,VALID,0,VALID,22.964,VALID,357,VALID,0.171875,
2011-10-09, 03:27:04,VALID,1004.48,VALID,0,VALID,96.04,VALID,0,VALID,22.9834,VALID,357,VALID,0.130078,
2011-10-09, 03:28:04,VALID,1004.48,VALID,0,VALID,96.0552,VALID,0,VALID,22.9622,VALID,357,VALID,0.0523437,
2011-10-09, 03:29:04,VALID,1004.46,VALID,0,VALID,96.0247,VALID,0,VALID,22.9445,VALID,357,VALID,0.117188,
2011-10-09, 03:30:04,VALID,1004.44,VALID,0,VALID,95.9866,VALID,0,VALID,22.8844,VALID,357,VALID,0.377344,
2011-10-09, 03:31:04,VALID,1004.46,VALID,0,VALID,96.0323,VALID,0,VALID,22.8649,VALID,357,VALID,0.0140625,
2011-10-09, 03:32:04,VALID,1004.45,VALID,0,VALID,96.0552,VALID,0,VALID,22.8455,VALID,357,VALID,0,
2011-10-09, 03:33:04,VALID,1004.47,VALID,0,VALID,96.1086,VALID,0,VALID,22.826,VALID,357,VALID,0,
2011-10-09, 03:34:04,VALID,1004.47,VALID,0,VALID,96.1163,VALID,0,VALID,22.8066,VALID,357,VALID,0,
2011-10-09, 03:35:05,VALID,1004.5,VALID,0,VALID,96.1697,VALID,0,VALID,22.8066,VALID,357,VALID,0.249609,
2011-10-09, 03:36:04,VALID,1004.46,VALID,0,VALID,96.2078,VALID,0,VALID,22.8066,VALID,357,VALID,0,
2011-10-09, 03:37:04,VALID,1004.47,VALID,0,VALID,96.246,VALID,0,VALID,22.8083,VALID,357,VALID,0,
2011-10-09, 03:38:05,VALID,1004.5,VALID,0,VALID,96.2688,VALID,0,VALID,22.7888,VALID,358,VALID,0.355469,
2011-10-09, 03:39:05,VALID,1004.49,VALID,0,VALID,96.2002,VALID,0,VALID,22.7694,VALID,358,VALID,0.300781,
2011-10-09, 03:40:05,VALID,1004.49,VALID,0,VALID,96.2612,VALID,0,VALID,22.7499,VALID,358,VALID,0,
2011-10-09, 03:41:05,VALID,1004.51,VALID,0,VALID,96.3146,VALID,0,VALID,22.7499,VALID,358,VALID,0.00117188,
2011-10-09, 03:42:05,VALID,1004.49,VALID,0,VALID,96.4367,VALID,0,VALID,22.7482,VALID,358,VALID,0.175781,
2011-10-09, 03:43:05,VALID,1004.5,VALID,0,VALID,96.4825,VALID,0,VALID,22.7871,VALID,358,VALID,0.41875,
2011-10-09, 03:44:05,VALID,1004.52,VALID,0,VALID,96.4062,VALID,0,VALID,22.7677,VALID,359,VALID,0.473828,